{"data":{"norad_id":61968,"epoch":"2026-09-21T09:30:26.441568Z","epoch_age_seconds":108116,"freshness":"FRESH","line1":"1 61968U 24210K   26264.39613937  .00016237  00000+0  59817-3 0  9991","line2":"2 61968  43.0014 147.4101 0001580 262.4808  97.5864 15.27584432104933","mean_motion":15.27584432,"eccentricity":0.000158,"inclination_deg":43.0014,"raan_deg":147.4101,"arg_perigee_deg":262.4808,"mean_anomaly_deg":97.5864,"bstar":0.00059817,"rev_number":10493,"period_min":94.266475216343,"perigee_km":481.95175976298,"apogee_km":484.1198903757,"semimajor_km":6861.1728250693,"source":"CELESTRAK","updated_at":"2026-09-22T09:00:49.478703Z"}}